This is the latest recevied weather packets stored in our database for station/object KD5FHA. If no packets are shown the sender has not sent any weather packets the latest 10 day(s).
| Time | Temp. | Humidity | Pressure | Rain* | Wind** | Luminosity | Snow |
|---|---|---|---|---|---|---|---|
| 1778002929 | 27.78° C | 70% | 1006.4 hPa | 0 mm | - | 883 W/m² | - |
| 1778002624 | 27.22° C | 70% | 1006.4 hPa | 0 mm | - | 582 W/m² | - |
| 1778002321 | 27.78° C | 69% | 1006.5 hPa | 0 mm | - | 498 W/m² | - |
| 1778002019 | 27.78° C | 70% | 1006.3 hPa | 0 mm | - | 582 W/m² | - |
| 1778001715 | 27.78° C | 70% | 1006.4 hPa | 0 mm | - | 573 W/m² | - |
| 1778001415 | 27.22° C | 70% | 1006.4 hPa | 0 mm | - | 674 W/m² | - |
| 1778001113 | 27.22° C | 71% | 1006.3 hPa | 0 mm | - | 492 W/m² | - |
| 1778000810 | 27.22° C | 71% | 1006.3 hPa | 0 mm | - | 581 W/m² | - |
| 1778000506 | 26.67° C | 72% | 1006.4 hPa | 0 mm | - | 488 W/m² | - |
| 1778000206 | 26.67° C | 71% | 1006.3 hPa | 0 mm | - | 459 W/m² | - |
| 1777999903 | 26.67° C | 71% | 1006 hPa | 0 mm | - | 404 W/m² | - |
| 1777999598 | 26.67° C | 71% | 1006.2 hPa | 0 mm | - | 437 W/m² | - |
| 1777999296 | 26.67° C | 72% | 1006.1 hPa | 0 mm | - | 458 W/m² | - |
| 1777998994 | 26.67° C | 73% | 1005.9 hPa | 0 mm | - | 610 W/m² | - |
| 1777998692 | 26.11° C | 73% | 1006 hPa | 0 mm | - | 504 W/m² | - |
| 1777998389 | 26.67° C | 73% | 1006 hPa | 0 mm | - | 555 W/m² | - |
| 1777998087 | 26.11° C | 73% | 1006 hPa | 0 mm | - | 583 W/m² | - |
| 1777997783 | 26.11° C | 73% | 1006.1 hPa | 0 mm | - | 412 W/m² | - |
| 1777997480 | 26.67° C | 74% | 1006.2 hPa | 0 mm | - | 446 W/m² | - |
| 1777997178 | 26.11° C | 74% | 1006.2 hPa | 0 mm | - | 664 W/m² | - |
| 1777996875 | 25.56° C | 75% | 1006.4 hPa | 0 mm | - | 537 W/m² | - |
| 1777996571 | 25.56° C | 76% | 1006.1 hPa | 0 mm | - | 390 W/m² | - |
| 1777996268 | 25.56° C | 76% | 1006.2 hPa | 0 mm | - | 401 W/m² | - |
| 1777995964 | 25.56° C | 76% | 1006 hPa | 0 mm | - | 470 W/m² | - |
| 1777995660 | 25.56° C | 77% | 1006.3 hPa | 0 mm | - | 423 W/m² | - |
* Rain latest hour (hover to see other rain measurements)
** Current wind speed in m/s (hover to see current wind gust speed)